Regional Weather Roundup
Issued by NWS

Home | Current Version | Previous Version | Graphics & Text | Print | Product List | Glossary On
Versions: 1 2 3 4 5 6 7 8 9 10 11 12 13 14 15 16 17 18 19 20 21 22 23 24 25 26 27 28 29 30 31 32 33 34 35 36 37 38 39 40 41 42 43 44 45 46 47 48 49 50
000
ASUS45 KABQ 260601
RWRNM
NEW MEXICO REGIONAL WEATHER ROUNDUP
NATIONAL WEATHER SERVICE ALBUQUERQUE NM
1200 AM MDT MON SEP 26 2016

NOTE: "FAIR" MEANS FEW OR NO CLOUDS BELOW 12,000 FEET AGL WITH NO
       SIGNIFICANT WEATHER OR OBSTRUCTIONS TO VISION.

      THIS PRODUCT IS RELEASED AS TWO VERSIONS.  ONE VERSION NEAR
      THE TOP OF THE HOUR CONTAINING PRELIMINARY DATA FROM ALBUQUERQUE
      AND OTHER STATIONS.  A FINAL VERSION WITH ADDITIONAL DATA IS
      ISSUED ABOUT 10 MINUTES AFTER THE HOUR.

NMZ501-503-504-510>518-260700-
NORTHWEST PLATEAU/NORTHCENTRAL MOUNTAINS

CITY           SKY/WX    TMP DP  RH WIND       PRES   REMARKS
FARMINGTON     FAIR      53  34  48 E8        30.36R
6HR MIN TEMP:  51; 6HR MAX TEMP:  72;

LOS ALAMOS     FAIR      52  31  45 SW12      30.50R
SANTA FE       FAIR      54  33  45 SE8       30.45R
6HR MIN TEMP:  54; 6HR MAX TEMP:  66;

TAOS           FAIR      52  28  40 SE21      30.49S
ANGEL FIRE     FAIR      32  29  88 CALM      30.59R

$$
NMZ402-403-502-505>509-260700-
WESTCENTRAL MOUNTAINS/SOUTHWEST MOUNTAINS

CITY           SKY/WX    TMP DP  RH WIND       PRES   REMARKS
GALLUP         FAIR      50  31  48 E5        30.41R
6HR MIN TEMP:  49; 6HR MAX TEMP:  71;

SILVER CITY    FAIR      59  42  54 SE9       30.34S

$$
NMZ407-409-411-412-260700-
SOUTHERN DESERTS

CITY           SKY/WX    TMP DP  RH WIND       PRES   REMARKS
DEMING         MOCLDY    66  45  46 E17G24    30.29R
6HR MIN TEMP:  66; 6HR MAX TEMP:  79;

LAS CRUCES     CLOUDY    65  43  44 SE12      30.29F
HOLLOMAN AFB   CLOUDY    68  43  40 SE2       30.26R
ALAMOGORDO     CLOUDY    68  37  32 E12G23    30.28S
T OR C         FAIR      64  39  39 NE13      30.31S
6HR MIN TEMP:  64; 6HR MAX TEMP:  75;


$$
NMZ519>523-260700-
CENTRAL VALLEYS/CENTRAL HIGHLANDS

CITY           SKY/WX    TMP DP  RH WIND       PRES   REMARKS
ALBUQUERQUE    FAIR      61  35  37 SE17      30.41R
6HR MIN TEMP:  61; 6HR MAX TEMP:  71;

DOUBLE EAGLE   FAIR      57  35  43 E13       30.44R
CLINES CORNERS FAIR      46  33  60 E10       30.51R
6HR MIN TEMP:  46; 6HR MAX TEMP:  59;

BELEN          NOT AVBL
SOCORRO        FAIR      64  36  34 NW3       30.37R
6HR MIN TEMP:  64; 6HR MAX TEMP:  72;


$$
NMZ524>526-539-540-260700-
SOUTHCENTRAL MOUNTAINS

CITY           SKY/WX    TMP DP  RH WIND       PRES   REMARKS
RUIDOSO        MOCLDY    48  37  66 SE7       30.49S

$$
NMZ527>531-260700-
NORTHEAST HIGHLANDS/NORTHEAST PLAINS

CITY           SKY/WX    TMP DP  RH WIND       PRES   REMARKS
LAS VEGAS      FAIR      41  32  70 N7        30.53R
6HR MIN TEMP:  41; 6HR MAX TEMP:  60;

RATON          FAIR      44  33  65 VRB5      30.51R
6HR MIN TEMP:  43; 6HR MAX TEMP:  63;

CLAYTON        FAIR      45  36  70 N6        30.45S
6HR MIN TEMP:  44; 6HR MAX TEMP:  64;


$$
NMZ532>537-260700-
EASTCENTRAL PLAINS

CITY           SKY/WX    TMP DP  RH WIND       PRES   REMARKS
TUCUMCARI      FAIR      53  34  48 CALM      30.39R
6HR MIN TEMP:  52; 6HR MAX TEMP:  72;

CANNON AFB     CLEAR     50  43  78 NE7       30.38S
6HR MIN TEMP:  50; 6HR MAX TEMP:  68;

CLOVIS AIRPORT FAIR      46  39  76 N7        30.38S

$$
NMZ028-029-538-260700-
SOUTHEAST PLAINS

CITY           SKY/WX    TMP DP  RH WIND       PRES   REMARKS
ROSWELL        FAIR      62  41  46 NE5       30.35S
6HR MIN TEMP:  61; 6HR MAX TEMP:  72;

ARTESIA        CLOUDY    61  46  59 N7        30.34S
CARLSBAD       CLOUDY    62  50  64 N3        30.31R
6HR MIN TEMP:  61; 6HR MAX TEMP:  63;

HOBBS          MOCLDY    59  45  58 NE15      30.32S


$$



USA.gov is the U.S. government's official web portal to all federal, state and local government web resources and services.